This is the latest recevied weather packets stored in our database for station/object IZ0VWB-3. If no packets are shown the sender has not sent any weather packets the latest 10 day(s).
| Time | Temp. | Humidity | Pressure | Rain* | Wind** | Luminosity | Snow |
|---|---|---|---|---|---|---|---|
| 1777881143 | 15.56° C | 79% | 1006.8 hPa | 0 mm | - | - | - |
| 1777880542 | 15° C | 80% | 1006.8 hPa | 0 mm | - | - | - |
| 1777879943 | 15° C | 80% | 1006.7 hPa | 0 mm | - | - | - |
| 1777879343 | 15° C | 80% | 1006.7 hPa | 0 mm | - | - | - |
| 1777878743 | 15° C | 80% | 1006.6 hPa | 0 mm | - | - | - |
| 1777878141 | 15° C | 81% | 1006.5 hPa | 0 mm | - | - | - |
| 1777877541 | 15° C | 83% | 1006.5 hPa | 0 mm | - | - | - |
| 1777876942 | 14.44° C | 83% | 1006.5 hPa | 0 mm | - | - | - |
| 1777876343 | 13.89° C | 84% | 1006.5 hPa | 0 mm | - | - | - |
| 1777875742 | 13.33° C | 84% | 1006.4 hPa | 0 mm | - | - | - |
| 1777875143 | 13.33° C | 83% | 1006.5 hPa | 0 mm | - | - | - |
| 1777874541 | 12.78° C | 83% | 1006.5 hPa | 0 mm | - | - | - |
| 1777871927 | 12.22° C | 80% | 1006.1 hPa | 0 mm | - | - | - |
| 1777871149 | 11.67° C | 78% | 1006 hPa | 0 mm | - | - | - |
| 1777870727 | 11.11° C | 78% | 1006 hPa | 0 mm | - | - | - |
| 1777870127 | 10.56° C | 77% | 1005.8 hPa | 0 mm | - | - | - |
| 1777869526 | 10° C | 78% | 1005.7 hPa | 0 mm | - | - | - |
| 1777868926 | 10° C | 78% | 1005.8 hPa | 0 mm | - | - | - |
| 1777868327 | 10° C | 79% | 1005.6 hPa | 0 mm | - | - | - |
| 1777867728 | 9.44° C | 79% | 1005.7 hPa | 0 mm | - | - | - |
| 1777867126 | 9.44° C | 80% | 1005.7 hPa | 0 mm | - | - | - |
| 1777866526 | 9.44° C | 80% | 1005.7 hPa | 0 mm | - | - | - |
| 1777865927 | 9.44° C | 80% | 1005.7 hPa | 0 mm | - | - | - |
| 1777865327 | 9.44° C | 81% | 1005.8 hPa | 0 mm | - | - | - |
| 1777864726 | 9.44° C | 81% | 1005.8 hPa | 0 mm | - | - | - |
* Rain latest hour (hover to see other rain measurements)
** Current wind speed in m/s (hover to see current wind gust speed)